Find Starlink 11190

NORAD ID: 60911 Int'l Des: 2024-154 Owner: SPXS Country: US Constellation: starlink operational
LEOCIRCULAR

实时位置

正在加载3D地球...

关于 Starlink 11190

正在加载描述...

即将过境

Passes for default location (London). Set your location on the main map for personalized predictions.

高度历史

Loading altitude history...

两行轨道根数

1 60911U 24154J 26124.52519395 -.00000079 00000-0 42011-5 0 9997
2 60911 53.1601 216.0383 0000987 106.0069 254.1057 15.69707640 97278
Epoch: May 4, 2026 • Age: 21 hours

当前状态

高度 366.8 km
速度 7.69 km/s
星下点 -24.10°S, 47.54°E
发射日期 Aug 31, 2024
运行时间 1.6 years
类型 internet

技术详情

分类 Payload
质量 960.00 kg
干质量 910.00 kg
总质量 960.00 kg
长度 0.30 m
直径 4.10 m
跨度 29.00 m
形状 Box + pan
制造商 SPXS
平台类型 Starlink V2MD
阶段状态 In Orbit
所有者/国家 SPXS/US

Most Searched